Weather History for KPQL - October, 2012

Change the Weather History Date:

Sunday, October 7, 2012

  Actual Average Record
Temperature  
Mean Temperature 66 °F -  
Max Temperature 75 °F 81 °F 89 °F (1969)
Min Temperature 57 °F 60 °F 45 °F (1964)
Cooling Degree Days 1    
Growing Degree Days 16 (Base 50)    
Moisture  
Dew Point 58 °F    
Average Humidity 79    
Maximum Humidity 94    
Minimum Humidity 59    
Precipitation  
Precipitation 0.00 in - - ()
Sea Level Pressure  
Sea Level Pressure 30.05 in    
Wind  
Wind Speed 9 mph (North)    
Max Wind Speed 16 mph    
Max Gust Speed 21 mph    
Visibility 10 miles    
Events      
Averages and records for this station are not official NWS values.
T = Trace of Precipitation, MM = Missing Value Source: NWS Daily Summary

Daily Weather History Graph

Daily Weather History Graph

Search for Another Location

Airport or City:

Trip Planner

Search our weather history database for the weather conditions in past years. The results will help you decide how hot, cold, wet, or windy it might be!

Date:

Astronomy

Oct. 07, 2012 Rise Set
Actual Time 6:51 AM CDT 6:31 PM CDT
Civil Twilight 6:27 AM CDT 6:55 PM CDT
Nautical Twilight 5:59 AM CDT 7:23 PM CDT
Astronomical Twilight 5:31 AM CDT 7:51 PM CDT
Moon 11:58 PM CDT (10/7) 1:12 PM CDT (10/7)
Length of Visible Light 12h 28m
Length of Day
11h 39m
Waning Gibbous, 56% of the Moon is Illuminated
Oct 7
Waning Gibbous
Oct 8
Last Quarter
Oct 15
New
Oct 21
First Quarter
Oct 29
Full

Hourly Weather History & Observations

Time (CDT) Temp. Dew Point Humidity Pressure Visibility Wind Dir Wind Speed Gust Speed Precip Events Conditions
12:53 AM 66.9 °F 64.0 °F 90% 30.01 in 10.0 mi North 5.8 mph - N/A   Clear
1:32 AM 66.2 °F 64.4 °F 94% 30.01 in 10.0 mi NNE 5.8 mph - N/A   Mostly Cloudy
1:53 AM 68.0 °F 64.0 °F 87% 30.02 in 10.0 mi NNE 4.6 mph - N/A   Overcast
2:05 AM 66.2 °F 64.4 °F 94% 30.02 in 10.0 mi NNE 6.9 mph - N/A   Overcast
2:33 AM 64.4 °F 60.8 °F 88% 30.02 in 10.0 mi North 10.4 mph - N/A   Overcast
2:45 AM 64.4 °F 60.8 °F 88% 30.02 in 10.0 mi North 11.5 mph - N/A   Overcast
2:53 AM 64.0 °F 59.0 °F 84% 30.03 in 10.0 mi North 9.2 mph - N/A   Overcast
3:53 AM 61.0 °F 57.0 °F 87% 30.02 in 10.0 mi North 9.2 mph 18.4 mph N/A   Partly Cloudy
4:19 AM 60.8 °F 57.2 °F 88% 30.02 in 10.0 mi North 9.2 mph - N/A   Partly Cloudy
4:53 AM 59.0 °F 55.9 °F 90% 30.03 in 10.0 mi North 11.5 mph 18.4 mph N/A   Partly Cloudy
5:53 AM 57.9 °F 55.0 °F 90% 30.04 in 10.0 mi North 10.4 mph - N/A   Partly Cloudy
6:53 AM 57.9 °F 55.0 °F 90% 30.06 in 10.0 mi North 10.4 mph - N/A   Scattered Clouds
7:02 AM 59.0 °F 55.4 °F 88% 30.05 in 10.0 mi North 11.5 mph - N/A   Mostly Cloudy
7:53 AM 60.1 °F 55.9 °F 86% 30.08 in 10.0 mi North 11.5 mph - N/A   Overcast
8:07 AM 60.8 °F 55.4 °F 82% 30.08 in 10.0 mi North 10.4 mph 20.7 mph N/A   Overcast
8:53 AM 62.1 °F 57.0 °F 84% 30.09 in 10.0 mi North 10.4 mph 19.6 mph N/A   Overcast
9:53 AM 64.0 °F 57.0 °F 78% 30.10 in 10.0 mi North 12.7 mph - N/A   Overcast
10:53 AM 66.0 °F 57.0 °F 73% 30.10 in 10.0 mi North 16.1 mph - N/A   Overcast
11:08 AM 66.2 °F 57.2 °F 73% 30.09 in 10.0 mi North 15.0 mph - N/A   Scattered Clouds
11:54 AM 71.1 °F 59.0 °F 66% 30.08 in - NE 11.5 mph - N/A   Unknown
12:53 PM 73.9 °F 60.1 °F 62% 30.06 in 10.0 mi North 10.4 mph - N/A   Clear
1:53 PM 75.0 °F 60.1 °F 60% 30.04 in 10.0 mi North 11.5 mph - N/A   Clear
2:53 PM 73.9 °F 59.0 °F 59% 30.01 in 10.0 mi NNW 13.8 mph 19.6 mph N/A   Clear
3:53 PM 73.0 °F 59.0 °F 61% 30.02 in 10.0 mi North 13.8 mph - N/A   Clear
4:53 PM 72.0 °F 57.0 °F 59% 30.01 in 10.0 mi North 11.5 mph - N/A   Clear
5:53 PM 70.0 °F 57.0 °F 63% 30.02 in 10.0 mi North 9.2 mph - N/A   Clear
6:53 PM 64.9 °F 57.0 °F 75% 30.04 in 10.0 mi North 8.1 mph - N/A   Clear
7:53 PM 63.0 °F 55.9 °F 78% 30.07 in 10.0 mi North 8.1 mph - N/A   Clear
8:53 PM 61.0 °F 55.0 °F 81% 30.09 in 10.0 mi North 8.1 mph - N/A   Clear
9:53 PM 60.1 °F 53.1 °F 78% 30.11 in 10.0 mi North 10.4 mph - N/A   Clear
10:53 PM 57.9 °F 52.0 °F 81% 30.11 in 10.0 mi North 8.1 mph - N/A   Clear
11:53 PM 57.0 °F 51.1 °F 81% 30.09 in 10.0 mi North 9.2 mph - N/A   Clear